Time,TemperatureF,DewpointF,PressureIn,WindDirection,WindDirectionDegrees,WindSpeedMPH,WindSpeedGustMPH,Humidity,HourlyPrecipIn,Conditions,Clouds,dailyrainin,SoftwareType,DateUTC
2013-05-03 00:00:00,58.5,45.1,30.33,NE,39,4.0,10.5,61,-99.99,,,0.00,VWS V14.01,2013-05-03 04:00:00,
2013-05-03 00:30:00,58.3,44.9,30.33,ENE,64,3.1,9.6,61,-99.99,,,0.00,VWS V14.01,2013-05-03 04:30:00,
2013-05-03 01:00:00,57.9,45.4,30.30,WSW,255,2.7,11.0,63,-99.99,,,0.00,VWS V14.01,2013-05-03 05:00:00,
2013-05-03 01:30:00,57.7,45.7,30.30,SW,225,3.6,10.5,64,-99.99,,,0.00,VWS V14.01,2013-05-03 05:30:00,
2013-05-03 02:00:00,57.6,45.9,30.30,NNE,13,0.0,6.9,65,-99.99,,,0.00,VWS V14.01,2013-05-03 06:00:00,
2013-05-03 02:30:00,57.4,46.5,30.30,SSW,198,0.0,6.9,67,-99.99,,,0.00,VWS V14.01,2013-05-03 06:30:00,
2013-05-03 03:00:00,57.0,47.0,30.30,NE,53,0.0,7.4,69,-99.99,,,0.00,VWS V14.01,2013-05-03 07:00:00,
2013-05-03 03:30:00,56.3,46.7,30.27,SSW,205,0.0,5.8,70,-99.99,,,0.00,VWS V14.01,2013-05-03 07:30:00,
2013-05-03 04:00:00,56.5,47.6,30.27,WSW,241,0.0,5.8,72,-99.99,,,0.00,VWS V14.01,2013-05-03 08:00:00,
2013-05-03 04:30:00,56.7,48.1,30.27,NNE,16,0.0,6.3,73,-99.99,,,0.00,VWS V14.01,2013-05-03 08:30:00,
2013-05-03 05:00:00,56.8,48.7,30.27,ENE,70,0.0,7.8,74,-99.99,,,0.00,VWS V14.01,2013-05-03 09:00:00,
2013-05-03 05:30:00,56.8,48.7,30.27,NE,48,0.0,7.8,74,-99.99,,,0.00,VWS V14.01,2013-05-03 09:30:00,
2013-05-03 06:00:00,56.7,48.5,30.27,ESE,108,4.5,6.3,74,-99.99,,,0.00,VWS V14.01,2013-05-03 10:00:00,
2013-05-03 06:30:00,56.5,48.3,30.27,NE,44,0.0,7.8,74,-99.99,,,0.00,VWS V14.01,2013-05-03 10:30:00,
2013-05-03 07:00:00,56.1,48.3,30.27,ENE,62,0.0,6.9,75,-99.99,,,0.00,VWS V14.01,2013-05-03 11:00:00,
2013-05-03 07:30:00,56.1,48.7,30.27,NE,45,0.0,6.3,76,-99.99,,,0.00,VWS V14.01,2013-05-03 11:30:00,
2013-05-03 08:00:00,56.7,48.8,30.27,NE,42,0.0,8.3,75,-99.99,,,0.00,VWS V14.01,2013-05-03 12:00:00,
2013-05-03 08:30:00,56.8,49.0,30.27,NNE,32,0.0,5.8,75,-99.99,,,0.00,VWS V14.01,2013-05-03 12:30:00,
2013-05-03 09:00:00,57.9,50.0,30.27,NNE,27,3.6,6.7,75,-99.99,,,0.00,VWS V14.01,2013-05-03 13:00:00,
2013-05-03 09:30:00,59.0,50.4,30.27,ENE,71,5.4,8.7,73,-99.99,,,0.00,VWS V14.01,2013-05-03 13:30:00,
2013-05-03 10:00:00,60.4,49.8,30.27,NNE,12,0.0,10.5,68,-99.99,,,0.00,VWS V14.01,2013-05-03 14:00:00,
2013-05-03 10:30:00,62.6,47.6,30.27,East,101,4.5,11.2,58,-99.99,,,0.00,VWS V14.01,2013-05-03 14:30:00,
2013-05-03 11:00:00,64.4,45.4,30.27,NNE,21,4.9,13.4,50,-99.99,,,0.00,VWS V14.01,2013-05-03 15:00:00,
2013-05-03 11:30:00,65.5,44.2,30.27,NNE,12,3.6,9.6,46,-99.99,,,0.00,VWS V14.01,2013-05-03 15:30:00,
2013-05-03 12:00:00,66.2,43.1,30.27,ENE,68,5.4,10.1,43,-99.99,,,0.00,VWS V14.01,2013-05-03 16:00:00,
2013-05-03 12:30:00,67.8,40.6,30.24,NNE,16,4.0,11.6,37,-99.99,,,0.00,VWS V14.01,2013-05-03 16:30:00,
2013-05-03 13:00:00,68.5,39.1,30.24,SW,230,8.3,15.9,34,-99.99,,,0.00,VWS V14.01,2013-05-03 17:00:00,
2013-05-03 13:30:00,68.5,38.3,30.24,NE,41,2.7,11.6,33,-99.99,,,0.00,VWS V14.01,2013-05-03 17:30:00,
2013-05-03 14:00:00,67.8,38.5,30.21,SSW,205,9.6,11.2,34,-99.99,,,0.00,VWS V14.01,2013-05-03 18:00:00,
2013-05-03 14:30:00,64.0,42.3,30.24,NNE,26,6.3,13.0,45,-99.99,,,0.00,VWS V14.01,2013-05-03 18:30:00,
2013-05-03 15:00:00,61.9,45.5,30.21,SSW,209,3.1,15.4,55,-99.99,,,0.00,VWS V14.01,2013-05-03 19:00:00,
2013-05-03 15:30:00,60.8,48.1,30.21,NE,41,0.0,9.2,63,-99.99,,,0.00,VWS V14.01,2013-05-03 19:30:00,
2013-05-03 16:00:00,62.1,48.0,30.21,NNE,16,0.0,7.8,60,-99.99,,,0.00,VWS V14.01,2013-05-03 20:00:00,
2013-05-03 16:30:00,62.2,44.4,30.21,SW,219,4.5,19.5,52,-99.99,,,0.00,VWS V14.01,2013-05-03 20:30:00,
2013-05-03 17:00:00,62.4,44.6,30.21,WSW,237,4.5,12.5,52,-99.99,,,0.00,VWS V14.01,2013-05-03 21:00:00,
2013-05-03 17:30:00,61.3,44.1,30.21,WSW,251,6.9,13.0,53,-99.99,,,0.00,VWS V14.01,2013-05-03 21:30:00,
2013-05-03 18:00:00,61.2,42.4,30.21,NNE,20,4.9,13.9,50,-99.99,,,0.00,VWS V14.01,2013-05-03 22:00:00,
2013-05-03 18:30:00,61.2,41.9,30.21,SSW,203,4.0,11.6,49,-99.99,,,0.00,VWS V14.01,2013-05-03 22:30:00,
2013-05-03 19:00:00,59.9,42.7,30.18,SW,232,4.0,16.8,53,-99.99,,,0.00,VWS V14.01,2013-05-03 23:00:00,
2013-05-03 19:30:00,59.2,43.5,30.18,SE,128,4.5,12.5,56,-99.99,,,0.00,VWS V14.01,2013-05-03 23:30:00,
2013-05-03 20:00:00,58.8,44.1,30.18,NE,37,4.9,10.1,58,-99.99,,,0.00,VWS V14.01,2013-05-04 00:00:00,
2013-05-03 20:30:00,58.3,44.9,30.18,NNE,26,4.0,12.1,61,-99.99,,,0.00,VWS V14.01,2013-05-04 00:30:00,
2013-05-03 21:00:00,57.9,45.0,30.15,SSW,209,4.9,13.0,62,-99.99,,,0.00,VWS V14.01,2013-05-04 01:00:00,
2013-05-03 21:30:00,57.6,45.1,30.15,NNE,14,3.6,11.6,63,-99.99,,,0.00,VWS V14.01,2013-05-04 01:30:00,
2013-05-03 22:00:00,57.4,44.9,30.15,WSW,256,3.6,15.9,63,-99.99,,,0.00,VWS V14.01,2013-05-04 02:00:00,
2013-05-03 22:30:00,57.2,43.5,30.15,SSW,199,3.1,16.8,60,-99.99,,,0.00,VWS V14.01,2013-05-04 02:30:00,
2013-05-03 23:00:00,56.7,43.4,30.15,SW,222,6.3,14.8,61,-99.99,,,0.00,VWS V14.01,2013-05-04 03:00:00,
2013-05-03 23:30:00,56.5,42.8,30.15,South,176,4.0,13.9,60,-99.99,,,0.00,VWS V14.01,2013-05-04 03:30:00,